User: anonymous   Login
Location: Unspecified
(0.0000°N, 0.0000°E)
Time: 19:00:52
(UTC+00:00)
Language:

Hubble Space Telescope - Orbit

View from above orbital plane
View from above orbital plane
View from above satellite
View from above satellite

Ground track
Ground track

The orbit data is extracted from the following two-line orbital elements,

1 20580U 90037B   19052.21218750  .00000401  00000-0  13467-4 0  9997
2 20580  28.4688 268.7415 0002583 302.1626 355.1019 15.09175932383127
Epoch (UTC): 21 February 2019 05:05:33
Eccentricity: 0.0002583
inclination: 28.4688°
perigee height: 537 km
apogee height: 540 km
right ascension of ascending node: 268.7415°
argument of perigee: 302.1626°
revolutions per day: 15.09175932
mean anomaly at epoch: 355.1019°
orbit number at epoch: 38312

The dashed part of the orbit path shows where the satellite is in the earth's shadow,  

DLR